Regional Weather Roundup
Issued by NWS Little Rock, AR

Home | Current Version | Previous Version | Graphics & Text | Print | Product List | Glossary On
Versions: 1 2 3 4 5 6 7 8 9 10 11 12 13 14 15 16 17 18 19 20 21 22 23 24 25 26 27
000
ASUS44 KLZK 282305
RWRLZK

WEATHER ROUNDUP FOR ARKANSAS
NATIONAL WEATHER SERVICE LITTLE ROCK AR
600 PM CDT SAT MAY 28 2016

NOTE: "FAIR" INDICATES FEW OR NO CLOUDS BELOW 12,000 FEET WITH NO
SIGNIFICANT WEATHER AND/OR OBSTRUCTIONS TO VISIBILITY.

ARZ001-003-010-029-290000-
NORTHWEST ARKANSAS

CITY           SKY/WX    TMP DP  RH WIND       PRES   REMARKS
FAYETTEVILLE   MOSUNNY   78  66  66 W6        29.98S
FORT SMITH     SUNNY     86  61  42 SW12      29.94R HX  86
HARRISON       SUNNY     81  63  54 S10G17    29.97S
BENTONVILLE    MOSUNNY   79  63  57 SW8       29.99F
ROGERS           N/A     77  65  66 SW9       29.99S
SILOAM SPGS    SUNNY     79  63  57 SW12      29.99F
HIGHFILL       SUNNY     78  67  68 SW7       29.98S
SPRINGDALE     MOSUNNY   79  64  61 W12       30.00S
$$

ARZ004-005-016-290000-
NORTH CENTRAL ARKANSAS

CITY           SKY/WX    TMP DP  RH WIND       PRES   REMARKS
BATESVILLE     SUNNY     82  66  57 SW9       29.99S HX  85
FLIPPIN        SUNNY    N/A N/A N/A S7        29.93S
MTN HOME       SUNNY     81  67  62 S9        29.94F
$$

ARZ040-041-290000-
WEST CENTRAL ARKANSAS

CITY           SKY/WX    TMP DP  RH WIND       PRES   REMARKS
MENA           SUNNY     82  70  65 SW3       29.99R HX  86
MOUNT IDA      SUNNY     79  66  64 VRB7      29.97F
$$

ARZ009-017-025-026-028-290000-
NORTHEAST ARKANSAS

CITY           SKY/WX    TMP DP  RH WIND       PRES   REMARKS
CORNING        LGT RAIN  82  68  61 SW14G20   29.99F HX  85
JONESBORO      CLOUDY    82  70  66 SW10      29.99S HX  86
NEWPORT        CLOUDY    85  68  56 S10       30.00S HX  88
WALNUT RIDGE   CLOUDY    82  66  57 S15       29.98F HX  85
BLYTHEVILLE    MOSUNNY   83  69  62 SW10      30.01R HX  86
$$

ARZ022-023-033-042-044-290000-
CENTRAL ARKANSAS

CITY           SKY/WX    TMP DP  RH WIND       PRES   REMARKS
LITTLE ROCK    MOSUNNY   83  66  56 SW6       29.99S HX  85
N LITTLE ROCK    N/A     83  67  59 W5        29.97F HX  85
JACKSONVILLE   SUNNY     84  67  56 S6        29.98S HX  87
SEARCY         SUNNY     82  70  65 S9        30.00F HX  86
HOT SPRINGS    SUNNY     80  66  62 SE7       29.99F
RUSSELLVILLE   SUNNY     82  67  60 S8        29.96S
CLINTON        FAIR      82  68  61 SE5       29.98F HX  85
$$

ARZ036-290000-
EAST ARKANSAS

CITY           SKY/WX    TMP DP  RH WIND       PRES   REMARKS
WEST MEMPHIS   MOSUNNY   82  70  66 S9        30.00R HX  86
$$

ARZ050-053-066-070-073-290000-
SOUTHWEST ARKANSAS

CITY           SKY/WX    TMP DP  RH WIND       PRES   REMARKS
ARKADELPHIA    FAIR      83  68  60 S3        29.99F HX  86
CAMDEN         SUNNY     84  66  54 SE7       29.98F HX  86
TEXARKANA      SUNNY     81  67  62 SE6       29.98F
EL DORADO      SUNNY     84  68  58 CALM      29.99F HX  87
DE QUEEN       SUNNY     80  69  69 VRB6      29.96S
$$

ARZ056-057-069-290000-
SOUTHEAST ARKANSAS

CITY           SKY/WX    TMP DP  RH WIND       PRES   REMARKS
PINE BLUFF     MOSUNNY   82  65  56 SW6       29.99F
STUTTGART      MOSUNNY   84  63  48 SW7       30.00S HX  85
MONTICELLO     CLOUDY    83  68  60 S8        30.00F HX  86

$$






USA.gov is the U.S. government's official web portal to all federal, state and local government web resources and services.